GW1769 Weather Reports


time (UTC)temp
F
wind
direction
speed
knots
gust
knots
rain 1hr
in
rain 24hr
in
rain mn
in
humidity
%
barometer
mb
20260903233008 68 184 0.0 0.0 0.00 0.00 0.00 98 1009.3
20260903232503 69 180 0.0 0.0 0.00 0.00 0.00 97 1009.2
20260903232003 69 180 0.0 0.0 0.00 0.00 0.00 96 1009.1
20260903231457 70 180 0.0 0.0 0.00 0.00 0.00 95 1009.4
20260903230951 70 180 0.0 0.0 0.00 0.00 0.00 94 1009.1
20260903230448 71 180 0.0 0.0 0.00 0.00 0.00 93 1009.1
20260903225944 71 180 0.0 0.0 0.00 0.00 0.00 90 1009.1
20260903225439 72 180 0.0 0.0 0.00 0.00 0.00 89 1009.2
20260903224935 72 180 0.0 0.0 0.00 0.00 0.00 89 1009.2
20260903224431 73 180 0.0 0.0 0.00 0.00 0.00 89 1009.0
20260903223927 73 179 0.0 0.0 0.00 0.00 0.00 87 1009.2
20260903223426 73 180 0.0 0.0 0.00 0.00 0.00 86 1009.2
20260903222919 73 180 0.0 0.0 0.00 0.00 0.00 85 1009.4
20260903222415 73 180 0.0 0.0 0.00 0.00 0.00 85 1009.3
20260903221909 73 179 0.0 0.0 0.00 0.00 0.00 84 1009.1
20260903221409 73 179 0.0 0.0 0.00 0.00 0.00 84 1009.2
20260903220906 73 181 0.0 0.0 0.00 0.00 0.00 84 1009.1
20260903220400 73 178 0.0 0.0 0.00 0.00 0.00 84 1009.2
20260903215857 73 178 0.0 0.0 0.00 0.00 0.00 84 1008.9
20260903215355 73 179 0.0 0.0 0.00 0.00 0.00 82 1009.1
20260903214853 73 178 0.0 0.0 0.00 0.00 0.00 82 1009.1
20260903214349 74 182 0.0 0.0 0.00 0.00 0.00 81 1008.9
20260903213848 74 177 0.0 0.0 0.00 0.00 0.00 81 1009.1
20260903213343 74 181 0.0 0.0 0.00 0.00 0.00 81 1009.0
20260903212840 74 183 0.0 0.0 0.00 0.00 0.00 81 1009.2
20260903212336 74 180 0.0 0.0 0.00 0.00 0.00 82 1009.2
20260903211835 75 181 0.0 0.0 0.00 0.00 0.00 82 1009.2
20260903211331 75 206 0.0 0.0 0.00 0.00 0.00 80 1009.1
20260903210827 75 175 0.0 0.9 0.00 0.00 0.00 79 1009.0
20260903210322 76 181 0.0 0.0 0.00 0.00 0.00 81 1009.2
20260903205821 76 185 0.0 0.0 0.00 0.00 0.00 81 1009.1
20260903205316 77 246 0.9 0.9 0.00 0.00 0.00 80 1009.3
20260903204811 77 191 1.7 1.7 0.00 0.00 0.00 76 1009.3
20260903204308 78 183 0.0 0.0 0.00 0.00 0.00 80 1009.2
20260903203803 78 233 0.0 0.0 0.00 0.00 0.00 81 1009.3
20260903203259 77 197 0.0 0.0 0.00 0.00 0.00 81 1009.3
20260903202757 78 259 0.9 1.7 0.00 0.00 0.00 81 1009.0
20260903202254 78 119 0.9 0.9 0.00 0.00 0.00 80 1009.0
20260903201753 77 221 0.9 0.9 0.00 0.00 0.00 82 1009.0
20260903201249 78 182 0.9 0.9 0.00 0.00 0.00 83 1008.9
20260903200747 77 217 0.9 0.9 0.00 0.00 0.00 83 1009.0
20260903200243 77 211 0.0 0.9 0.00 0.00 0.00 82 1009.0
20260903195738 77 193 0.0 0.0 0.00 0.00 0.00 85 1009.1
20260903195234 78 207 1.7 1.7 0.00 0.00 0.00 82 1008.9
20260903194733 78 252 1.7 1.7 0.00 0.00 0.00 82 1009.0
20260903194229 77 182 0.0 0.9 0.00 0.00 0.00 85 1009.3
20260903193724 78 283 0.9 1.7 0.00 0.00 0.00 83 1009.4
20260903193220 77 191 0.9 0.9 0.00 0.00 0.00 84 1009.4
20260903192716 77 204 0.9 0.9 0.00 0.00 0.00 86 1009.2
20260903192211 77 207 0.0 0.9 0.00 0.00 0.00 84 1009.2
20260903191707 75 186 0.0 0.0 0.00 0.00 0.00 88 1009.4
20260903191202 76 208 0.0 0.0 0.00 0.00 0.00 87 1009.3
20260903190657 78 197 0.0 0.0 0.00 0.00 0.00 85 1009.0
20260903190157 80 186 0.0 0.0 0.00 0.00 0.00 82 1009.6
20260903185652 78 207 0.0 0.0 0.00 0.00 0.00 84 1009.4
20260903185147 78 188 0.0 0.9 0.00 0.00 0.00 86 1009.5
20260903184643 78 188 0.9 0.9 0.00 0.00 0.00 87 1009.5
20260903184139 77 186 0.0 0.0 0.00 0.00 0.00 85 1009.8
20260903183637 80 202 0.0 0.0 0.00 0.00 0.00 83 1009.8
20260903183133 80 237 1.7 1.7 0.00 0.00 0.00 82 1009.7
20260903182631 79 209 1.7 1.7 0.00 0.00 0.00 82 1009.6
20260903182128 77 193 0.0 0.9 0.00 0.00 0.00 86 1009.6
20260903181626 75 163 0.9 0.9 0.00 0.00 0.00 90 1009.5
20260903181121 75 186 0.0 0.9 0.00 0.00 0.00 91 1009.9
20260903180616 75 195 0.0 0.9 0.00 0.00 0.00 90 1009.8
20260903180111 75 178 0.0 0.9 0.00 0.00 0.00 91 1009.7
20260903175610 75 187 0.0 0.0 0.00 0.00 0.00 91 1009.8
20260903175109 76 158 0.0 0.9 0.00 0.00 0.00 89 1009.5
20260903174604 76 182 0.0 0.0 0.00 0.00 0.00 89 1009.5
20260903174059 76 182 0.0 0.0 0.00 0.00 0.00 89 1009.7
20260903173554 77 161 0.0 0.9 0.00 0.00 0.00 86 1009.5
20260903173050 78 181 0.0 0.0 0.00 0.00 0.00 85 1009.7
20260903172544 80 285 1.7 2.6 0.00 0.00 0.00 84 1009.6
20260903172040 78 199 0.9 0.9 0.00 0.00 0.00 86 1010.0
20260903171535 77 211 0.9 0.9 0.00 0.00 0.00 89 1009.9
20260903171030 76 202 0.9 0.9 0.00 0.00 0.00 94 1010.1
20260903170523 75 189 0.0 0.0 0.00 0.00 0.00 93 1009.7
20260903170019 75 193 0.0 0.9 0.00 0.00 0.00 92 1009.9
20260903165511 75 167 0.9 0.9 0.00 0.00 0.00 88 1009.7
20260903165007 76 187 0.0 0.0 0.00 0.00 0.00 88 1009.9
20260903164507 77 199 1.7 2.6 0.00 0.00 0.00 84 1009.8
20260903164002 76 213 0.9 0.9 0.00 0.00 0.00 86 1009.8
20260903163457 76 183 0.0 0.9 0.00 0.00 0.00 88 1009.8
20260903162953 75 192 0.9 0.9 0.00 0.00 0.00 89 1010.2
20260903162449 74 145 0.0 0.0 0.00 0.00 0.00 94 1010.2
20260903161944 73 175 0.0 0.9 0.00 0.00 0.00 94 1010.4
20260903161440 73 192 0.0 0.9 0.00 0.00 0.00 94 1010.2
20260903160936 72 189 0.9 1.7 0.00 0.00 0.00 94 1010.3
20260903160434 72 198 0.9 0.9 0.00 0.00 0.00 95 1010.7
20260903155933 73 194 0.0 0.9 0.00 0.00 0.00 95 1010.5
20260903155428 73 181 0.9 0.9 0.00 0.00 0.00 94 1010.5
20260903154924 73 179 0.0 0.9 0.00 0.00 0.00 95 1010.5
20260903154420 73 189 0.9 0.9 0.00 0.00 0.00 97 1010.7
20260903153915 72 189 0.0 0.0 0.00 0.00 0.00 98 1010.5
20260903153410 71 182 0.0 0.0 0.00 0.00 0.00 98 1010.5
20260903152907 72 183 0.0 0.0 0.00 0.00 0.00 97 1010.5
20260903152403 72 182 0.0 0.0 0.00 0.00 0.00 96 1010.7
20260903151858 72 179 1.7 1.7 0.00 0.00 0.00 95 1010.7
20260903151352 72 188 0.0 0.9 0.00 0.00 0.00 96 1010.5
20260903150852 72 181 0.9 1.7 0.00 0.00 0.00 97 1010.4
20260903150347 71 180 0.0 0.0 0.00 0.00 0.00 99 1010.4
20260903145842 71 181 0.0 0.0 0.00 0.00 0.00 99 1010.7
20260903145337 71 183 0.0 0.0 0.00 0.00 0.00 99 1010.4
20260903144836 70 187 0.0 0.0 0.00 0.00 0.00 99 1010.3
20260903144332 71 180 0.0 0.0 0.00 0.00 0.00 99 1010.4
20260903143827 70 181 0.0 0.0 0.00 0.00 0.00 99 1010.4
20260903143324 70 181 0.0 0.0 0.00 0.00 0.00 99 1010.7
20260903142819 70 178 0.0 0.0 0.00 0.00 0.00 99 1010.4
20260903142315 70 177 0.0 0.0 0.00 0.00 0.00 99 1010.3
20260903141811 70 189 0.0 0.0 0.00 0.00 0.00 99 1010.4
20260903141307 69 182 0.0 0.0 0.00 0.00 0.00 99 1010.3
20260903140806 69 181 0.0 0.0 0.00 0.00 0.00 99 1010.4
20260903140301 69 178 0.0 0.0 0.00 0.00 0.00 99 1010.4
20260903135757 68 188 0.0 0.0 0.00 0.00 0.00 99 1010.4
20260903135253 68 180 0.0 0.0 0.00 0.00 0.00 99 1010.4
20260903134751 68 181 0.0 0.0 0.00 0.00 0.00 99 1010.3
20260903134247 68 177 0.0 0.0 0.00 0.00 0.00 99 1010.5
20260903133744 68 170 0.0 0.0 0.00 0.00 0.00 99 1010.3
20260903133240 68 179 0.0 0.0 0.00 0.00 0.00 99 1010.1
20260903132735 67 180 0.0 0.0 0.00 0.00 0.00 99 1010.4
20260903132229 67 178 0.0 0.0 0.00 0.00 0.00 99 1010.3
20260903131724 67 182 0.0 0.0 0.00 0.00 0.00 99 1010.2
20260903131219 67 181 0.0 0.0 0.00 0.00 0.00 99 1010.2
20260903130713 67 174 0.0 0.0 0.00 0.00 0.00 99 1010.2
20260903130208 67 178 0.0 0.0 0.00 0.00 0.00 99 1010.4
20260903125706 66 178 0.0 0.0 0.00 0.00 0.00 99 1010.5
20260903125202 65 175 0.0 0.0 0.00 0.00 0.00 99 1010.8
20260903124701 65 178 0.0 0.0 0.00 0.00 0.00 99 1010.8
20260903124156 64 173 0.0 0.0 0.00 0.00 0.00 99 1010.7
20260903123655 64 164 0.0 0.0 0.00 0.00 0.00 99 1010.8
20260903123154 64 181 0.0 0.0 0.00 0.00 0.00 99 1010.8
20260903122654 64 184 0.0 0.0 0.00 0.00 0.00 99 1010.9
20260903122149 64 180 0.0 0.0 0.00 0.00 0.00 99 1011.0
20260903121647 64 179 0.0 0.0 0.00 0.00 0.00 99 1011.0
20260903121144 64 179 0.0 0.0 0.00 0.00 0.00 99 1011.0
20260903120642 63 180 0.0 0.0 0.00 0.00 0.00 99 1011.0
20260903120137 63 183 0.0 0.0 0.00 0.00 0.00 99 1010.8
20260903115635 63 183 0.0 0.0 0.00 0.00 0.00 99 1010.9
20260903115131 63 180 0.0 0.0 0.00 0.00 0.00 99 1010.9
20260903114626 62 183 0.0 0.0 0.00 0.00 0.00 99 1011.0
20260903114121 62 183 0.0 0.0 0.00 0.00 0.00 99 1010.9
20260903113616 62 183 0.0 0.0 0.00 0.00 0.00 99 1010.9
20260903113113 62 180 0.0 0.0 0.00 0.00 0.00 99 1010.9
20260903112609 62 183 0.0 0.0 0.00 0.00 0.00 99 1011.0
20260903112108 62 180 0.0 0.0 0.00 0.00 0.00 99 1011.0
20260903111608 62 183 0.0 0.0 0.00 0.00 0.00 99 1011.0
20260903111103 62 183 0.0 0.0 0.00 0.00 0.00 99 1011.1
20260903110559 62 179 0.0 0.0 0.00 0.00 0.00 99 1011.2
20260903110054 62 180 0.0 0.0 0.00 0.00 0.00 99 1011.2
20260903105549 62 183 0.0 0.0 0.00 0.00 0.00 99 1011.1
20260903105044 62 177 0.0 0.0 0.00 0.00 0.00 99 1011.4
20260903104543 62 179 0.0 0.0 0.00 0.00 0.00 99 1011.3
20260903104039 62 178 0.0 0.0 0.00 0.00 0.00 99 1011.0
20260903103535 62 183 0.0 0.0 0.00 0.00 0.00 99 1011.2
20260903103032 62 181 0.0 0.0 0.00 0.00 0.00 99 1011.0
20260903102526 62 183 0.0 0.0 0.00 0.00 0.00 99 1011.2
20260903102026 62 183 0.0 0.0 0.00 0.00 0.00 99 1011.1
20260903101520 62 180 0.0 0.0 0.00 0.00 0.00 99 1011.1
20260903101016 62 180 0.0 0.0 0.00 0.00 0.00 99 1010.9
20260903100511 62 183 0.0 0.0 0.00 0.00 0.00 99 1011.2
20260903100009 62 179 0.0 0.0 0.00 0.00 0.00 99 1011.2
20260903095502 62 180 0.0 0.0 0.00 0.00 0.00 99 1010.9
20260903094957 62 180 0.0 0.0 0.00 0.00 0.00 99 1011.0
20260903094456 62 180 0.0 0.0 0.00 0.00 0.00 99 1010.8
20260903093953 62 183 0.0 0.0 0.00 0.00 0.00 99 1010.8
20260903093448 62 183 0.0 0.0 0.00 0.00 0.00 99 1010.5
20260903092944 62 183 0.0 0.0 0.00 0.00 0.00 99 1010.8
20260903092443 62 179 0.0 0.0 0.00 0.00 0.00 99 1010.8
20260903091943 62 184 0.0 0.0 0.00 0.00 0.00 99 1010.5
20260903091440 62 183 0.0 0.0 0.00 0.00 0.00 99 1010.8
20260903090936 62 183 0.0 0.0 0.00 0.00 0.00 99 1010.7
20260903090432 62 184 0.0 0.0 0.00 0.00 0.00 99 1010.7
20260903085930 62 180 0.0 0.0 0.00 0.00 0.00 99 1010.8
20260903085429 62 183 0.0 0.0 0.00 0.00 0.00 99 1011.0
20260903084929 62 183 0.0 0.0 0.00 0.00 0.00 99 1010.9
20260903084427 62 180 0.0 0.0 0.00 0.00 0.00 99 1011.0
20260903083922 62 179 0.0 0.0 0.00 0.00 0.00 99 1010.9
20260903083419 62 180 0.0 0.0 0.00 0.00 0.00 99 1010.9
20260903082917 62 179 0.0 0.0 0.00 0.00 0.00 99 1010.9
20260903082413 62 177 0.0 0.0 0.00 0.00 0.00 99 1011.2
20260903081908 62 179 0.0 0.0 0.00 0.00 0.00 99 1011.2
20260903081403 62 179 0.0 0.0 0.00 0.00 0.00 99 1010.9
20260903080859 62 181 0.0 0.0 0.00 0.00 0.00 99 1011.0
20260903080356 62 183 0.0 0.0 0.00 0.00 0.00 99 1010.9
20260903075856 62 183 0.0 0.0 0.00 0.00 0.00 99 1011.0
20260903075351 62 183 0.0 0.0 0.00 0.00 0.00 99 1010.8
20260903074850 62 184 0.0 0.0 0.00 0.00 0.00 99 1011.0
20260903074345 62 183 0.0 0.0 0.00 0.00 0.00 99 1010.9
20260903073841 62 179 0.0 0.0 0.00 0.00 0.00 99 1011.1
20260903073335 62 180 0.0 0.0 0.00 0.00 0.00 99 1011.1
20260903072831 62 183 0.0 0.0 0.00 0.00 0.00 99 1011.2
20260903072327 62 179 0.0 0.0 0.00 0.00 0.00 99 1011.2
20260903071824 61 179 0.0 0.0 0.00 0.00 0.00 99 1010.9
20260903071319 61 183 0.0 0.0 0.00 0.00 0.00 99 1010.8
20260903070815 62 180 0.0 0.0 0.00 0.00 0.00 99 1010.8
20260903070310 62 183 0.0 0.0 0.00 0.00 0.00 99 1010.8
20260903065805 62 178 0.0 0.0 0.00 0.00 0.00 99 1010.9
20260903065306 61 179 0.0 0.0 0.00 0.00 0.00 99 1011.0
20260903064803 61 183 0.0 0.0 0.00 0.00 0.00 99 1010.9
20260903064259 61 175 0.0 0.0 0.00 0.00 0.00 99 1011.0
20260903063754 61 181 0.0 0.0 0.00 0.00 0.00 99 1011.1
20260903063249 61 183 0.0 0.0 0.00 0.00 0.00 99 1010.9
20260903062746 61 180 0.0 0.0 0.00 0.00 0.00 99 1010.9
20260903062244 61 179 0.0 0.0 0.00 0.00 0.00 99 1010.9
20260903061741 61 176 0.0 0.0 0.00 0.00 0.00 99 1010.8
20260903061240 61 179 0.0 0.0 0.00 0.00 0.00 99 1010.8
20260903060736 61 178 0.0 0.0 0.00 0.00 0.00 99 1010.8
20260903060236 61 178 0.0 0.0 0.00 0.00 0.00 99 1010.8
20260903055733 61 179 0.0 0.0 0.00 0.00 0.00 99 1010.8
20260903055232 61 177 0.0 0.0 0.00 0.00 0.00 99 1010.9
20260903054727 61 179 0.0 0.0 0.00 0.00 0.00 99 1010.8
20260903054222 61 180 0.0 0.0 0.00 0.00 0.00 99 1010.9
20260903053719 61 178 0.0 0.0 0.00 0.00 0.00 99 1010.8
20260903053213 61 178 0.0 0.0 0.00 0.00 0.00 99 1010.9
20260903052709 61 178 0.0 0.0 0.00 0.00 0.00 99 1011.0
20260903052204 62 180 0.0 0.0 0.00 0.00 0.00 99 1011.1
20260903051659 62 174 0.0 0.0 0.00 0.00 0.00 99 1011.2
20260903051154 62 177 0.0 0.0 0.00 0.00 0.00 99 1011.3
20260903050649 62 173 0.0 0.0 0.00 0.00 0.00 99 1011.0
20260903050138 62 182 0.0 0.0 0.00 0.00 0.00 99 1011.0
20260903045638 62 177 0.0 0.0 0.00 0.00 0.00 99 1011.4
20260903045135 62 182 0.0 0.0 0.00 0.00 0.00 99 1011.3
20260903044630 62 182 0.0 0.0 0.00 0.00 0.00 99 1011.2
20260903044125 62 186 0.0 0.0 0.00 0.00 0.00 99 1011.4
20260903043621 62 186 0.0 0.0 0.00 0.00 0.00 99 1011.6
20260903043120 62 180 0.0 0.0 0.00 0.00 0.00 99 1011.8
20260903042615 62 190 0.0 0.0 0.00 0.00 0.00 99 1011.8
20260903042110 62 181 0.0 0.0 0.00 0.00 0.00 99 1011.7
20260903041607 62 175 0.0 0.0 0.00 0.00 0.00 99 1011.6
20260903041102 62 173 0.0 0.0 0.00 0.00 0.00 99 1011.6
20260903040601 62 176 0.0 0.0 0.00 0.00 0.00 99 1011.7
20260903040057 62 176 0.0 0.0 0.00 0.00 0.00 99 1011.9
20260903035553 62 177 0.0 0.0 0.00 0.00 0.00 99 1011.9
20260903035048 62 184 0.0 0.0 0.00 0.00 0.00 99 1012.3
20260903034543 62 180 0.0 0.0 0.00 0.00 0.00 99 1012.4
20260903034039 62 186 0.0 0.0 0.00 0.00 0.00 99 1012.6
20260903033533 62 196 0.0 0.0 0.00 0.00 0.00 99 1012.6
20260903033029 62 183 0.0 0.0 0.00 0.00 0.00 99 1012.8
20260903032523 62 182 0.0 0.0 0.00 0.00 0.00 99 1012.9
20260903032018 62 184 0.0 0.0 0.00 0.00 0.00 99 1013.1
20260903031513 62 193 0.0 0.0 0.00 0.00 0.00 99 1012.9
20260903031008 62 144 0.0 0.0 0.00 0.00 0.00 99 1013.2
20260903030504 62 182 0.0 0.0 0.00 0.00 0.00 99 1013.4
20260903025959 62 180 0.0 0.0 0.00 0.00 0.00 99 1013.3
20260903025455 62 180 0.0 0.0 0.00 0.00 0.00 99 1013.1
20260903024950 62 181 0.0 0.0 0.00 0.00 0.00 99 1012.8
20260903024449 62 179 0.0 0.0 0.00 0.00 0.00 99 1012.7
20260903023944 62 179 0.0 0.0 0.00 0.00 0.00 99 1012.7
20260903023440 62 177 0.0 0.0 0.00 0.00 0.00 99 1012.8
20260903022935 62 176 0.0 0.0 0.00 0.00 0.00 99 1013.0
20260903022434 62 171 0.0 0.0 0.00 0.00 0.00 99 1012.9
20260903021932 62 173 0.9 0.9 0.00 0.00 0.00 99 1012.9
20260903021428 62 180 0.0 0.0 0.00 0.00 0.00 99 1013.0
20260903020923 63 177 0.0 0.0 0.00 0.00 0.00 99 1013.2
20260903020418 63 168 0.0 0.0 0.00 0.00 0.00 99 1013.6
20260903015913 63 163 0.0 0.0 0.00 0.00 0.00 99 1014.0
20260903015409 63 178 0.0 0.0 0.00 0.00 0.00 98 1014.0
20260903014904 63 176 0.0 0.0 0.00 0.00 0.00 98 1014.1
20260903014403 63 179 0.0 0.0 0.00 0.00 0.00 98 1014.3
20260903013858 63 177 0.0 0.0 0.00 0.00 0.00 98 1014.1
20260903013358 63 159 0.9 0.9 0.00 0.00 0.00 98 1014.0
20260903012857 63 186 1.7 1.7 0.00 0.00 0.00 98 1014.2
20260903012356 63 178 0.0 0.0 0.00 0.00 0.00 97 1014.1
20260903011856 63 180 0.0 0.0 0.00 0.00 0.00 97 1014.2
20260903011350 63 197 0.9 0.9 0.00 0.00 0.00 97 1014.0
20260903010845 63 168 0.0 0.0 0.00 0.00 0.00 96 1014.2
20260903010335 63 176 0.0 0.0 0.00 0.00 0.00 95 1014.3
20260903005833 63 182 0.0 0.0 0.00 0.00 0.00 95 1014.6
20260903005329 63 170 0.9 1.7 0.00 0.00 0.00 95 1014.7
20260903004824 63 170 0.0 0.0 0.00 0.00 0.00 95 1015.0
20260903004320 63 187 0.9 0.9 0.00 0.00 0.00 94 1014.7
20260903003815 63 174 0.0 0.0 0.00 0.00 0.00 94 1014.3
20260903003309 63 183 0.0 0.0 0.00 0.00 0.00 94 1014.2
20260903002804 63 166 1.7 1.7 0.00 0.00 0.00 94 1014.1
20260903002306 63 171 1.7 2.6 0.00 0.00 0.00 95 1013.9
20260903001759 63 204 0.9 1.7 0.00 0.00 0.00 94 1013.4
20260903001254 63 196 0.9 1.7 0.00 0.00 0.00 93 1014.2
20260903000748 63 187 0.0 0.0 0.00 0.00 0.00 93 1014.2
20260903000243 63 210 0.9 1.7 0.00 0.00 0.00 93 1014.0
20260902235741 63 173 0.0 0.9 0.00 0.00 0.00 93 1013.5
20260902235237 63 172 0.9 1.7 0.00 0.00 0.00 94 1013.4
20260902234736 63 245 1.7 1.7 0.00 0.00 0.00 94 1013.6
20260902234236 63 127 1.7 1.7 0.00 0.00 0.00 94 1013.3
20260902233735 63 209 1.7 1.7 0.00 0.00 0.00 94 1013.0